[[{"header":{"parameterUnit":"m.s-1","parameterCategory":1,"la1":30.2991,"la2":30.254,"lo1":-89.0895,"lo2":-89.0444,"dy":0.0017,"dx":0.0017,"nx":28,"ny":28,"refTime":"2023-10-22T03:00:00:Z","depth":0,"parameterNumber":2,"parameterNumberName":"U-component_of_WINDS"},"data":[0,0,0,0,0,0,0,0,0,0,0,0,0,0,0,0,0,0,0,0,0,0,0,0,0,0,0,0,0,0,0,0,0,0,0,0,0,0,0,0,0,0,0,0,0,0,0,0,0,0,0,0,0,0,0,0,0,0,0.209,0.2091,0,0.218,0.2181,0.2182,0.2211,0.2211,0.2211,0.221,0.2306,0.2309,0.2312,0,0,0,0,0,0,0,0,0,0,0,0,0,0.1948,0.1951,0.209,0.2091,0.2092,0.2179,0.2181,0.2182,0.2211,0.2211,0.2211,0.221,0.2305,0.2308,0.2312,0,0,0,0,0,0,0,0,0,0,0,0,0,0.2021,0.1951,0.209,0.2117,0.2121,0.2179,0.2181,0.2182,0.2212,0.2211,0.221,0.221,0.2304,0.2308,0.2312,0.2351,0,0,0.2326,0.2328,0,0,0,0,0,0,0,0,0.2017,0.2026,0.2112,0.2116,0.2119,0.2184,0.2166,0.2239,0.2212,0.2177,0.221,0.221,0.2266,0.2273,0.2292,0.2356,0.236,0.2326,0.2329,0.2331,0.2332,0,0,0,0,0,0,0,0.2012,0.2022,0.2126,0.2113,0.2118,0.2126,0.2136,0.218,0.2224,0.218,0.2183,0.2193,0.2268,0.2287,0.2294,0.2361,0.2326,0.233,0.2333,0.2334,0.2462,0.2462,0,0,0,0,0,0,0.2001,0.2018,0.2123,0.2128,0.2065,0.2129,0.214,0.2164,0.2223,0.2232,0.2193,0.2194,0.228,0.2289,0.2298,0.2347,0.2331,0.2335,0.2337,0.2461,0.2462,0.2462,0,0,0,0,0,0,0.1998,0.201,0.2119,0.2074,0.2088,0.2132,0.2159,0.2166,0.2185,0.2233,0.2241,0.2204,0.228,0.2291,0.2337,0.2351,0.2337,0.2341,0.246,0.2461,0.2462,0.2445,0,0,0,0,0,0,0.1994,0.2009,0.2023,0.2074,0.209,0.2156,0.2159,0.2168,0.2192,0.2194,0.2246,0.2254,0.2281,0.2331,0.2342,0.2356,0.2344,0.2459,0.246,0.2462,0.2445,0.2446,0.2447,0,0,0,0,0,0.1989,0.2016,0.2024,0.2036,0.2109,0.2157,0.2166,0.2195,0.2193,0.2208,0.2239,0.2253,0.2347,0.2335,0.2348,0.2364,0.2458,0.246,0.2462,0.2445,0.2446,0.2447,0,0,0,0,0,0,0.1968,0.2023,0.2033,0.2077,0.2111,0.2162,0.2182,0.2195,0.2232,0.2233,0.2268,0.2279,0.2322,0.2348,0.2333,0.2405,0.2404,0.2408,0.2386,0.2388,0.2388,0.2382,0.2348,0,0,0,0,0,0.1968,0.2,0.2048,0.2082,0.2099,0.2137,0.2159,0.2178,0.2216,0.2231,0.2266,0.2303,0.2341,0.2366,0.2404,0.2449,0.2461,0.2466,0.2467,0.2467,0.2471,0.2497,0.25,0.2468,0.2468,0.2468,0,0,0.1969,0.2003,0.2022,0.2079,0.2108,0.2142,0.215,0.2186,0.2212,0.2237,0.2282,0.2309,0.2353,0.2398,0.242,0.2421,0.2482,0.247,0.2469,0.2473,0.2499,0.2502,0.2504,0.2469,0.2469,0.2469,0,0,0.1988,0.2017,0.2049,0.2078,0.2122,0.2147,0.2154,0.2203,0.2221,0.2266,0.2286,0.2318,0.2383,0.2414,0.2438,0.2469,0.2483,0.248,0.2484,0.2509,0.2512,0.2514,0.2525,0.2529,0.2483,0.2483,0.2483,0,0.1984,0.2036,0.2064,0.2099,0.2123,0.2147,0.218,0.2207,0.2261,0.2278,0.2278,0.236,0.2391,0.2444,0.2451,0.247,0.2481,0.2474,0.2509,0.2511,0.2514,0.2525,0.2529,0.2483,0.2483,0.2483,0.2483,0,0.2029,0.2064,0.2085,0.2135,0.2162,0.2196,0.223,0.2254,0.2271,0.2296,0.2343,0.2381,0.2427,0.2441,0.2458,0.2497,0.2496,0.2502,0.2501,0.2516,0.2527,0.2531,0.2482,0.2482,0.2482,0.2482,0,0,0.2038,0.2103,0.211,0.2133,0.2183,0.2211,0.2246,0.229,0.231,0.2347,0.2378,0.2432,0.2438,0.2465,0.2486,0.2507,0.2529,0.2511,0.2512,0.2513,0.2574,0.2569,0.2574,0.2539,0.254,0.254,0.2571,0,0.2064,0.2126,0.2152,0.2203,0.2236,0.2259,0.229,0.2324,0.2349,0.2381,0.241,0.2447,0.2452,0.2468,0.2491,0.2522,0.2542,0.252,0.2569,0.257,0.2557,0.258,0.2575,0.2602,0.2575,0.2576,0.2576,0,0.2102,0.2138,0.2191,0.2237,0.2252,0.2279,0.2321,0.2351,0.2391,0.2408,0.2438,0.2457,0.2496,0.2493,0.2547,0.2531,0.2553,0.2571,0.2573,0.2579,0.2574,0.2586,0.2611,0.2615,0.2583,0.2583,0.2582,0,0.2103,0.2165,0.2204,0.2224,0.2278,0.2296,0.232,0.2359,0.2384,0.2421,0.2437,0.2479,0.2502,0.2534,0.2565,0.2559,0.2616,0.2615,0.2632,0.2631,0.2643,0.2642,0.2671,0.2656,0.2656,0.2656,0.2656,0,0.213,0.2162,0.2206,0.223,0.2267,0.2297,0.2333,0.2359,0.2393,0.2424,0.2446,0.2475,0.2513,0.2547,0.2571,0.2613,0.2623,0.2638,0.2644,0.2636,0.2634,0.2651,0.265,0.2657,0.2657,0.2657,0.2657,0,0.2137,0.2168,0.2213,0.226,0.2273,0.2297,0.2339,0.2364,0.2389,0.2428,0.2439,0.2479,0.252,0.2554,0.2608,0.2624,0.2667,0.2674,0.2653,0.2656,0.2671,0.2669,0.2712,0.272,0.2699,0.27,0.27,0,0.2152,0.2177,0.2226,0.2248,0.2271,0.2305,0.233,0.2361,0.2386,0.2433,0.2453,0.2495,0.2531,0.2595,0.263,0.2671,0.268,0.2692,0.2686,0.2677,0.268,0.2678,0.2681,0.2693,0.2693,0.2693,0.2693,0,0.2175,0.2189,0.2223,0.2262,0.2291,0.2324,0.2357,0.2374,0.2412,0.2439,0.248,0.2507,0.2562,0.2603,0.2648,0.2674,0.269,0.2694,0.27,0.2692,0.2679,0.2686,0.2655,0.2693,0.2693,0.2693,0.2693,0.2693,0.2187,0.221,0.2248,0.2285,0.2313,0.2344,0.237,0.2398,0.2433,0.2479,0.2495,0.2538,0.2578,0.2639,0.2665,0.2699,0.2701,0.271,0.2712,0.2714,0.2713,0.2673,0.2708,0.2708,0.2708,0.2708,0.2708,0,0.2211,0.2236,0.227,0.2316,0.2345,0.2356,0.2394,0.2418,0.2455,0.249,0.2524,0.2571,0.2612,0.265,0.2692,0.2713,0.2721,0.2723,0.2722,0.2727,0.2709,0.2699,0.2715,0.2715,0.2715,0.2715,0.2715,0.2715,0.2227,0.2266,0.2284,0.2339,0.2364,0.2405,0.2426,0.2454,0.2483,0.2534,0.2567,0.2591,0.2628,0.2673,0.2711,0.2721,0.2736,0.2736,0.2748,0.273,0.2729,0.2728,0.2719,0.2739,0.2739,0.2764,0.2764,0.2764]},{"header":{"parameterUnit":"m.s-1","parameterCategory":1,"la1":30.2991,"la2":30.254,"lo1":-89.0895,"lo2":-89.0444,"dy":0.0017,"dx":0.0017,"nx":28,"ny":28,"refTime":"2023-10-22T03:00:00:Z","depth":0,"parameterNumber":3,"parameterNumberName":"V-component_of_WINDS"},"data":[0,0,0,0,0,0,0,0,0,0,0,0,0,0,0,0,0,0,0,0,0,0,0,0,0,0,0,0,0,0,0,0,0,0,0,0,0,0,0,0,0,0,0,0,0,0,0,0,0,0,0,0,0,0,0,0,0,0,1.4732,1.4732,0,1.472,1.472,1.472,1.4719,1.4719,1.4719,1.4719,1.4705,1.4704,1.4704,0,0,0,0,0,0,0,0,0,0,0,0,0,1.4752,1.4752,1.4732,1.4732,1.4732,1.472,1.472,1.472,1.4719,1.4719,1.4719,1.4719,1.4705,1.4704,1.4704,0,0,0,0,0,0,0,0,0,0,0,0,0,1.4742,1.4751,1.4732,1.473,1.473,1.472,1.472,1.472,1.4719,1.4719,1.4719,1.4719,1.4705,1.4704,1.4703,1.4694,0,0,1.4701,1.4701,0,0,0,0,0,0,0,0,1.4742,1.4741,1.4731,1.473,1.473,1.4721,1.4722,1.4711,1.4719,1.4723,1.4719,1.472,1.471,1.4709,1.4706,1.4694,1.4693,1.4701,1.4701,1.47,1.47,0,0,0,0,0,0,0,1.4743,1.4742,1.4727,1.473,1.473,1.4729,1.4728,1.472,1.4715,1.4723,1.4723,1.4721,1.471,1.4707,1.4706,1.4693,1.4701,1.47,1.47,1.47,1.4671,1.4671,0,0,0,0,0,0,1.4745,1.4742,1.4728,1.4727,1.4737,1.4728,1.4727,1.4724,1.4715,1.4714,1.4721,1.4721,1.4708,1.4706,1.4705,1.4693,1.47,1.4699,1.4699,1.4672,1.4671,1.4671,0,0,0,0,0,0,1.4745,1.4743,1.4728,1.4735,1.4733,1.4728,1.4724,1.4723,1.472,1.4714,1.4713,1.4719,1.4708,1.4706,1.4697,1.4692,1.4699,1.4698,1.4672,1.4671,1.4671,1.4669,0,0,0,0,0,0,1.4746,1.4744,1.4741,1.4735,1.4732,1.4721,1.4724,1.4723,1.4719,1.4719,1.4712,1.4711,1.4708,1.4698,1.4696,1.4692,1.4698,1.4672,1.4672,1.4671,1.467,1.4669,1.4668,0,0,0,0,0,1.4746,1.4741,1.4741,1.4739,1.4729,1.4721,1.472,1.4717,1.4719,1.4716,1.4712,1.4711,1.4693,1.4697,1.4695,1.469,1.4673,1.4672,1.4671,1.467,1.4669,1.4668,0,0,0,0,0,0,1.4746,1.474,1.474,1.4732,1.4727,1.4721,1.4717,1.4716,1.471,1.471,1.4707,1.4705,1.4696,1.4692,1.4696,1.468,1.4683,1.4682,1.4683,1.4682,1.4681,1.4682,1.4697,0,0,0,0,0,1.4745,1.474,1.4735,1.4728,1.4726,1.4722,1.4718,1.4717,1.4711,1.4709,1.4704,1.4698,1.4691,1.4686,1.468,1.4669,1.4667,1.4665,1.4664,1.4663,1.4662,1.4655,1.4654,1.4669,1.4669,1.4669,0,0,1.4743,1.4739,1.4736,1.4728,1.4724,1.4718,1.472,1.4714,1.4709,1.4708,1.4699,1.4695,1.4688,1.4678,1.4673,1.4674,1.4657,1.4663,1.4662,1.4661,1.4654,1.4653,1.4652,1.4668,1.4669,1.4669,0,0,1.4735,1.4733,1.4726,1.4722,1.4716,1.4714,1.4712,1.4706,1.4703,1.4695,1.4693,1.4687,1.4675,1.467,1.4666,1.4655,1.4654,1.4653,1.4649,1.4642,1.4641,1.464,1.4635,1.4633,1.4652,1.4652,1.4652,0,1.4733,1.4725,1.4723,1.4717,1.4713,1.4712,1.4705,1.4701,1.4693,1.469,1.4691,1.4676,1.4671,1.4659,1.4657,1.4654,1.4651,1.4654,1.4641,1.464,1.4639,1.4634,1.4633,1.4652,1.4652,1.4652,1.4652,0,1.4722,1.4716,1.4712,1.4704,1.47,1.4693,1.4689,1.4685,1.4684,1.468,1.467,1.4664,1.4656,1.4653,1.4652,1.4641,1.4641,1.4642,1.4645,1.4638,1.4633,1.4631,1.4652,1.4652,1.4652,1.4652,0,0,1.4714,1.4706,1.4704,1.47,1.4693,1.4688,1.4681,1.4673,1.4669,1.4663,1.4656,1.4646,1.4646,1.4641,1.4639,1.4633,1.4624,1.4634,1.4634,1.4632,1.461,1.4608,1.4606,1.4623,1.4623,1.4623,1.461,0,1.4705,1.4693,1.4691,1.468,1.4674,1.4673,1.4666,1.4661,1.4657,1.465,1.4646,1.4639,1.464,1.4637,1.4631,1.4626,1.4619,1.4627,1.4615,1.4615,1.4616,1.4604,1.4603,1.4591,1.4608,1.4608,1.4608,0,1.4694,1.4688,1.4677,1.467,1.4667,1.4661,1.4653,1.4648,1.4641,1.4638,1.4633,1.4631,1.4622,1.4625,1.4612,1.4617,1.4612,1.4609,1.4608,1.4606,1.461,1.4601,1.4588,1.4585,1.4605,1.4605,1.4605,0,1.4688,1.4678,1.4669,1.4666,1.4658,1.4654,1.465,1.4643,1.4638,1.4631,1.4628,1.4619,1.4614,1.4607,1.4603,1.4606,1.4589,1.4593,1.4586,1.4586,1.4582,1.4582,1.4566,1.458,1.458,1.458,1.458,0,1.4678,1.4671,1.4666,1.4661,1.4652,1.4649,1.4641,1.4637,1.4631,1.4623,1.4622,1.4615,1.461,1.4602,1.4598,1.4587,1.4585,1.4581,1.458,1.4581,1.4581,1.4577,1.4577,1.458,1.458,1.458,1.458,0,1.467,1.4667,1.4658,1.4651,1.4649,1.4642,1.4636,1.463,1.4626,1.4617,1.4615,1.4609,1.4599,1.4594,1.4582,1.4579,1.4566,1.4566,1.4568,1.4568,1.4561,1.4561,1.4541,1.4538,1.4555,1.4554,1.4554,0,1.4664,1.4658,1.4651,1.4646,1.4643,1.4636,1.4631,1.4627,1.4622,1.4613,1.4607,1.4598,1.459,1.4574,1.4568,1.4558,1.4557,1.4551,1.4555,1.4556,1.4555,1.4555,1.4554,1.455,1.4549,1.4549,1.4549,0,1.4653,1.4651,1.4645,1.4637,1.4631,1.4625,1.4619,1.4615,1.461,1.4604,1.4594,1.4588,1.4575,1.4565,1.4555,1.455,1.4548,1.4548,1.4545,1.4546,1.4547,1.4545,1.4565,1.4548,1.4548,1.4548,1.4548,1.4548,1.4645,1.4639,1.4633,1.4625,1.462,1.4614,1.4608,1.4603,1.4596,1.4586,1.4584,1.4573,1.4565,1.4551,1.4545,1.4536,1.4537,1.4534,1.4533,1.4532,1.4531,1.4549,1.4534,1.4534,1.4534,1.4534,1.4534,0,1.4632,1.4628,1.4621,1.4612,1.4606,1.4606,1.4599,1.4593,1.4584,1.4577,1.4569,1.4557,1.4547,1.454,1.4529,1.4523,1.4522,1.452,1.452,1.4518,1.4531,1.4534,1.4521,1.4521,1.4521,1.4521,1.4521,1.4521,1.4625,1.4616,1.4613,1.46,1.4596,1.4586,1.4582,1.4575,1.457,1.4557,1.4549,1.4544,1.4536,1.4525,1.4515,1.4513,1.4508,1.4507,1.4504,1.4516,1.4518,1.4519,1.4521,1.4506,1.4506,1.4492,1.4492,1.4492]}]]